Location: Sears
(37.7625°N, 100.1060°W)
Time: 21:42:45
(UTC+00:00)

ALOS - Pass Details

Date: 29 October 2020
Orbit: 684 x 684 km, 97.9° (Epoch: 01 December)

Event Time Altitude Azimuth Distance (km) Brightness Sun altitude
Rises 12:19:58 0° 355° (N) 3,055 5.5 -9.1°
Reaches altitude 10° 12:22:43 10° 339° (NNW) 2,135 4.5 -8.6°
Maximum altitude 12:26:03 20° 293° (WNW) 1,574 3.5 -8.0°
Drops below altitude 10° 12:29:23 10° 247° (WSW) 2,125 4.3 -7.3°
Sets 12:32:07 0° 231° (SW) 3,036 5.2 -6.8°
